Location: Bas Lanzent
(48.1360°N, 3.5871°W)
Time: 10:56:33
(UTC+00:00)

STARLINK-1135 - Pass Details

Date: 18 February 2020
Orbit: 548 x 551 km, 53.0° (Epoch: 05 April)

Event Time Altitude Azimuth Distance (km) Brightness Sun altitude
Exits shadow 04:37:54 37° 31° (NNE) 879 4.9 -27.1°
Drops below altitude 10° 04:40:58 10° 65° (ENE) 1,859 7.3 -26.6°
Enters shadow 05:38:11 -69° 268° (W) 12,490 10.4 -17.1°
Maximum altitude 06:17:09 49° 12° (NNE) 737 4.3 -10.6°
